Погода в Карабулаке

Россия / Республика Ингушетия     43°18′20″N   44°54′33″E
темп.,
°C
ветер,
м/с
пор.,
м/с
влажн.,
%
обл.,
%
осадки,
мм/ч
давл.,
гПа
погр.,
м
15 мая, сб
сб1500:00+17ююз22620 0.0 101218
03:00+16юз22550 0.0 101220
06:00+17юз34653 0.0 101352
09:00+25ссз12435 0.0 1012536
12:00+27св32445 0.0 10121210
15:00+28св214840 0.1 10121662
18:00+18ююз4773100 1.1 1013129
21:00+16ююз3377100 2.3 101427
16 мая, вс
вс1600:00+16ююз227271 0.0 101217
03:00+16ююз22685 0.0 101117
06:00+17юз12695 0.0 101128
09:00+24св21503 0.0 1009508
12:00+26всв44471 0.0 1008830
15:00+28всв44424 0.0 10061074
18:00+24с23630 0.0 100559
21:00+18юз336217 0.0 100634
17 мая, пн
пн1700:00+17юз344487 0.0 100644
03:00+16ююз22405 0.0 100524
06:00+17ююз225210 0.0 100623
09:00+25всв224146 0.0 1005336
12:00+27всв44370 0.0 1005530
15:00+29всв4438100 0.0 1004832
18:00+24с246452 0.0 100482
21:00+17зюз61387100 1.1 1008381
18 мая, вт
вт1800:00+16зюз3692100 0.1 1008124
03:00+15зюз379247 0.1 1009175
06:00+16з4992100 0.1 1011686
09:00+15з5894100 1.1 1012608
12:00+16зсз2591100 1.3 1013415
15:00+19зюз3473100 1.6 1012936
18:00+19ссз237840 0.3 1013272
21:00+15юз339089 1.1 101536
19 мая, ср
ср1900:00+13юз22925 0.0 101428
03:00+13юз22905 0.0 101516
06:00+15юз22850 0.0 101656
09:00+21св21600 0.0 1014725
12:00+24всв43520 0.0 10141215
15:00+25всв445015 0.0 10131359
18:00+22св36645 0.0 1013229
21:00+16ююв217788 0.0 101512